Regional Weather Roundup
Issued by NWS Northern Indiana

Home | Current Version | Previous Version | Text Only | Print | Product List | Glossary Off
Versions: 1 2 3 4 5 6 7 8 9 10 11 12 13 14 15 16 17 18 19 20 21 22 23 24 25 26 27 28 29 30 31 32 33 34 35 36 37 38 39 40 41 42 43 44 45 46 47 48 49 50

000
ASUS43 KIWX 012300
RWRIWX

KIWX WEATHER ROUNDUP
NATIONAL WEATHER SERVICE NORTHERN INDIANA
700 PM EDT TUE SEP 01 2015

NOTE: "FAIR" INDICATES FEW OR NO CLOUDS BELOW 12,000 FEET WITH NO
SIGNIFICANT WEATHER AND/OR OBSTRUCTIONS TO VISIBILITY.

* THESE STATIONS ARE NOT UNDER NWS QUALITY CONTROL. THEY ALSO MAY NOT
  REPORT WEATHER SUCH AS PRECIPITATION OR FOG.

INZ001>027-020000-
NORTHERN INDIANA

CITY           SKY/WX    TMP DP  RH WIND       PRES   REMARKS
GARY*          MOSUNNY   86  66  51 S9        30.02S
KNOX*          SUNNY     82  68  61 S3        30.03S
SOUTH BEND     MOSUNNY   83  70  64 SW8       30.04S
ELKHART*       SUNNY     84  72  65 SW5       30.04R
GOSHEN         MOSUNNY   83  72  69 S7        30.04R
MONTICELLO*    SUNNY     82  69  64 SW12      30.05R
WARSAW*        MOSUNNY   82  70  65 SW5       30.06R
ANGOLA*        MOSUNNY   82  73  74 S5        30.06R
FORT WAYNE     MOSUNNY   81  69  67 S12       30.07S
PERU/GRISSOM   SUNNY     84  68  58 SW8       30.06R

$$
INZ028>050-020000-
CENTRAL INDIANA

CITY           SKY/WX    TMP DP  RH WIND       PRES   REMARKS
LAFAYETTE      SUNNY     82  67  60 SW5       30.05F
KOKOMO*        SUNNY     84  66  54 SW10      30.07R
MUNCIE*        SUNNY     80  67  64 S6        30.08F
INDIANAPOLIS   MOSUNNY   82  65  56 SW9       30.08S

$$
MIZ043>046-050>051-056>058-064>065-071>073-077>080-020000-
SOUTHWEST LOWER MICHIGAN

CITY           SKY/WX    TMP DP  RH WIND       PRES   REMARKS
BATTLE CREEK   PTSUNNY   83  72  69 W6        30.04R
BENTON HARBOR  SUNNY     83  73  72 SW6       30.02R
COLDWATER*     SUNNY     82  68  62 W5        30.05R
HILLSDALE*     MOSUNNY   82  68  62 CALM      30.06S
HOLLAND        SUNNY     82  71  69 SW10      30.02S
GRAND RAPIDS   MOSUNNY   84  71  65 SW8       30.01S
KALAMAZOO      MOSUNNY   80  70  71 W5        30.03S
STURGIS*       SUNNY     79  72  78 SW3       30.04S
THREE RIVERS*  FAIR      80  69  70 NE5       30.04S

$$
OHZ001>008-015>018-024>025-020000-
NORTHWEST OHIO

CITY           SKY/WX    TMP DP  RH WIND       PRES   REMARKS
DEFIANCE       MOSUNNY   85  68  56 VRB7      30.05R
FINDLAY        MOSUNNY   81  67  62 SW9       30.05S
TOLEDO EXPRESS SUNNY     84  69  60 S3        30.03F
TOLEDO METCALF SUNNY     87  65  47 SW8       30.04S
LIMA           CLOUDY    80  68  66 S7        30.08S

$$
AND FOR LAKE MICHIGAN COASTAL AND OPEN LAKE BUOY OBSERVATIONS

STATION/POSITION TEMP    WIND        PRES    VSBY  WAVE
                 AIR SEA DIR/SP/G                  HT/PER
                 (F)     (DEG/KT/KT) (MB)    (MI)  (FT/S)
CALUMET HARBOR    86     200/  7/ 12   N/A
BURNS HARBOR      84     190/  8/ 11 1016.6F
SAINT JOSEPH      79     180/  8/  9 1016.6F
SOUTH LAKE BUOY   74 70  170/ 12/ 16 1014.9F         1/ 3
4 MI NW BRIDGMAN  75 73  220/  4/  4   N/A           1/ 3
MICHIGAN CITY     78 73  220/  4/  6   N/A           1

$$
&&


USA.gov is the U.S. government's official web portal to all federal, state and local government web resources and services.